Location: Kuppenheim
(48.8299°N, 8.2568°E)
Time: 09:34:37
(UTC+00:00)

USA 229 DEB - Pass Details

Date: 20 June 2021
Orbit: 955 x 1257 km, 63.4° (Epoch: 25 July)

Event Time Altitude Azimuth Distance (km) Brightness Sun altitude
Exits shadow 00:22:26 23° 216° (SW) 1,995 4.6 -16.7°
Maximum altitude 00:26:47 86° 129° (SE) 1,034 3.6 -16.6°
Drops below altitude 10° 00:33:41 10° 42° (NE) 2,932 7.0 -16.3°
Sets 00:36:27 0° 43° (NE) 3,938 7.8 -16.2°
